Location: Gleizolles
(44.4833°N, 6.7667°E)
Time: 12:37:03
(UTC+00:00)

A-11 Canister half - Pass Details

Date: 14 June 2024
Orbit: 1515 x 1684 km, 47.2° (Epoch: 24 July)

Event Time Altitude Azimuth Distance (km) Brightness Sun altitude
Rises 02:39:50 0° 294° (WNW) 4,781 11.4 -10.0°
Reaches altitude 10° 02:43:20 10° 285° (WNW) 3,769 10.8 -9.5°
Maximum altitude 02:51:24 33° 226° (SW) 2,373 9.5 -8.5°
Drops below altitude 10° 02:59:18 10° 167° (SSE) 3,673 10.7 -7.5°
Sets 03:02:41 0° 158° (SSE) 4,645 11.3 -7.1°
